sat.trackr.live / text

‹ back to catalog

STARLINK-32758

NORAD 62744 · 2025-014K

PAYLOAD ACTIVE UNKNOWN

§ Identity

Operator
Country
US
Launch date
2025-01-21
Launch site
AFETR
Launch vehicle
Mass (kg)
RCS (m²)

Purposes: comms

External: N2YO · Heavens-Above · Gunter

§ Orbital elements

Epoch: 2026-09-21T08:41:16.898496Z

Period
94.27 min
Inclination
43.0041°
Eccentricity
0.0001215
Mean motion
15.27573466 rev/d
Perigee alt
482.2 km
Apogee alt
483.9 km
Semi-major
6,861.2 km
B*
6.7726e-4
RAAN
132.7386°
Arg perigee
266.7947°
Mean anomaly
93.2766°
Rev number
9,314

§ Raw data

STARLINK-327581 62744U 25014K   26264.36200114  .00018417  00000+0  67726-3 0  99932 62744  43.0041 132.7386 0001215 266.7947  93.2766 15.27573466 93143

JSON: /api/v1/satellites/62744 · /tle

For live sub-satellite position, see the globe view (requires WebGL).

§ Visibility from observer

Set your observer location to see the next 7 days of passes ≥ 10°. The values pass through the URL so the page stays shareable.

No JS? Fill the form by hand. The geolocation button needs JavaScript.